EW0600 Weather Reports


Display with metric or nautical units.
time (UTC)temp
F
wind
direction
speed
MPH
gust
MPH
rain 1hr
in
rain 24hr
in
rain mn
in
humidity
%
barometer
mb
20260509124502 51 326 21.0 25.0 0.00 0.00 0.00 76 1001.6
20260509124426 52 323 15.0 23.0 0.00 0.00 0.00 76 1001.5
20260509123405 52 337 13.0 26.0 0.00 0.00 0.00 77 1001.3
20260509123126 52 321 14.0 26.0 0.00 0.00 0.00 77 1001.4
20260509122414 52 309 18.0 26.0 0.00 0.00 0.00 76 1001.2
20260509121502 52 295 16.0 25.0 0.00 0.00 0.00 76 1001.1
20260509121405 52 326 16.0 24.0 0.00 0.00 0.00 77 1001.0
20260509115255 52 281 10.0 18.0 0.00 0.00 0.00 75 1000.7
20260509114503 51 283 9.0 13.0 0.00 0.00 0.00 73 1000.7
20260509114253 51 282 5.0 10.0 0.00 0.00 0.00 73 1000.7
20260509113228 51 273 5.0 7.0 0.00 0.00 0.00 73 1000.5
20260509113136 51 275 6.0 7.0 0.00 0.00 0.00 72 1000.5
20260509112219 51 276 4.0 5.0 0.00 0.00 0.00 73 1000.3
20260509111503 51 289 4.0 6.0 0.00 0.00 0.00 73 1000.2
20260509111200 51 292 4.0 5.0 0.00 0.00 0.00 73 1000.1
20260509110123 51 289 4.0 5.0 0.00 0.00 0.00 73 1000.0
20260509110106 51 289 4.0 6.0 0.00 0.00 0.00 72 1000.1
20260509105054 51 286 5.0 10.0 0.00 0.00 0.00 72 1000.0
20260509104503 50 277 5.0 11.0 0.00 0.00 0.00 72 999.9
20260509104033 51 322 4.0 10.0 0.00 0.00 0.00 72 1000.0
20260509103109 49 214 3.0 7.0 0.00 0.00 0.00 68 999.6
20260509103025 50 226 4.0 6.0 0.00 0.00 0.00 68 999.6
20260509102023 50 212 1.0 3.0 0.00 0.00 0.00 66 999.6
20260509101509 50 354 1.0 3.0 0.00 0.00 0.00 66 999.8
20260509101009 51 354 0.0 0.0 0.00 0.00 0.00 66 999.5
20260509100021 51 355 0.0 4.0 0.00 0.00 0.00 65 999.8
20260509095041 50 336 2.0 4.0 0.00 0.00 0.00 67 1000.1
20260509094610 49 333 3.0 4.0 0.00 0.00 0.00 66 1000.2
20260509094047 50 325 1.0 3.0 0.00 0.00 0.00 64 1000.2
20260509093033 49 328 0.0 2.0 0.00 0.00 0.00 63 999.9
20260509093003 49 328 1.0 3.0 0.00 0.00 0.00 64 1000.0
20260509092005 49 328 2.0 3.0 0.00 0.00 0.00 65 999.8
20260509091602 48 328 2.0 5.0 0.00 0.00 0.00 64 1000.0
20260509090937 49 328 2.0 4.0 0.00 0.00 0.00 63 999.8
20260509090001 48 323 2.0 7.0 0.00 0.00 0.00 62 999.7
20260509085925 49 323 3.0 6.0 0.00 0.00 0.00 62 999.6
20260509084619 49 304 7.0 12.0 0.00 0.00 0.00 60 999.6
20260509083754 50 305 7.0 13.0 0.00 0.00 0.00 57 999.5
20260509083002 49 314 10.0 14.0 0.00 0.00 0.00 57 999.5
20260509082737 50 278 5.0 7.0 0.00 0.00 0.00 56 998.9
20260509081749 49 238 3.0 7.0 0.00 0.00 0.00 56 998.6
20260509081602 49 231 4.0 6.0 0.00 0.00 0.00 57 998.6
20260509080717 49 250 2.0 3.0 0.00 0.00 0.00 58 998.6
20260509075701 49 236 1.0 3.0 0.00 0.00 0.00 58 998.6
20260509074712 50 229 2.0 2.0 0.00 0.00 0.00 57 998.5
20260509074603 49 229 3.0 4.0 0.00 0.00 0.00 57 998.5
20260509073712 50 217 0.0 2.0 0.00 0.00 0.00 57 998.4
20260509073102 49 217 0.0 1.0 0.00 0.00 0.00 56 998.4
20260509072700 50 161 0.0 2.0 0.00 0.00 0.00 56 998.4
20260509071657 50 198 1.0 2.0 0.00 0.00 0.00 56 998.5
20260509071503 49 207 2.0 2.0 0.00 0.00 0.00 56 998.6
20260509070645 50 219 0.0 1.0 0.00 0.00 0.00 55 998.7
20260509070054 49 160 0.0 1.0 0.00 0.00 0.00 54 998.8
20260509065700 50 161 0.0 0.0 0.00 0.00 0.00 54 998.7
20260509064637 50 146 0.0 1.0 0.00 0.00 0.00 54 998.9
20260509064603 49 146 0.0 2.0 0.00 0.00 0.00 54 998.9
20260509063647 49 210 1.0 2.0 0.00 0.00 0.00 56 999.0
20260509063002 49 218 2.0 4.0 0.00 0.00 0.00 54 999.2
20260509062708 51 224 2.0 3.0 0.00 0.00 0.00 52 999.2
20260509061650 52 182 2.0 4.0 0.00 0.00 0.00 52 999.1
20260509061608 51 193 3.0 5.0 0.00 0.00 0.00 51 999.2
20260509060627 52 207 2.0 4.0 0.00 0.00 0.00 51 999.4
20260509060004 52 195 2.0 4.0 0.00 0.00 0.00 50 999.3
20260509055634 52 197 1.0 2.0 0.00 0.00 0.00 49 999.3
20260509054625 52 157 1.0 2.0 0.00 0.00 0.00 48 999.5
20260509054613 52 155 1.0 3.0 0.00 0.00 0.00 48 999.6
20260509053555 53 274 0.0 1.0 0.00 0.00 0.00 48 999.7
20260509053003 52 274 1.0 2.0 0.00 0.00 0.00 48 999.8
20260509052531 53 274 0.0 1.0 0.00 0.00 0.00 47 999.8
20260509051609 53 286 0.0 2.0 0.00 0.00 0.00 47 999.7
20260509051554 54 286 0.0 0.0 0.00 0.00 0.00 47 999.7
20260509050005 55 286 1.0 4.0 0.00 0.00 0.00 45 1000.0
20260509045355 56 284 3.0 4.0 0.00 0.00 0.00 44 1000.0
20260509044617 56 295 4.0 5.0 0.00 0.00 0.00 43 1000.1
20260509044415 56 295 3.0 5.0 0.00 0.00 0.00 44 1000.0
20260509043427 56 292 4.0 8.0 0.00 0.00 0.00 45 1000.2
20260509043003 56 301 5.0 9.0 0.00 0.00 0.00 43 1000.3
20260509042411 57 309 6.0 9.0 0.00 0.00 0.00 43 1000.3
20260509041603 57 288 7.0 10.0 0.00 0.00 0.00 42 1000.3
20260509041342 58 303 7.0 9.0 0.00 0.00 0.00 42 1000.3
20260509040308 58 309 7.0 11.0 0.00 0.00 0.00 41 1000.3
20260509040003 58 316 7.0 11.0 0.00 0.00 0.00 41 1000.3
20260509035306 59 334 8.0 11.0 0.00 0.00 0.00 40 1000.3
20260509034604 58 312 8.0 12.0 0.00 0.00 0.00 40 1000.2
20260509034304 59 319 8.0 13.0 0.00 0.00 0.00 40 1000.3
20260509033322 59 307 10.0 13.0 0.00 0.00 0.00 40 1000.3
20260509033003 59 315 11.0 14.0 0.00 0.00 0.00 40 1000.2
20260509032324 60 310 9.0 14.0 0.00 0.00 0.00 41 1000.1
20260509031611 60 317 10.0 14.0 0.00 0.00 0.00 40 1000.0
20260509031339 60 321 10.0 14.0 0.00 0.00 0.00 40 999.9
20260509030304 61 321 11.0 18.0 0.00 0.00 0.00 39 999.8
20260509030005 61 323 12.0 19.0 0.00 0.00 0.00 39 999.8
20260509025322 62 321 12.0 18.0 0.00 0.00 0.00 38 999.8
20260509024602 62 304 11.0 19.0 0.00 0.00 0.00 38 999.8
20260509024251 62 311 12.0 18.0 0.00 0.00 0.00 37 999.6
20260509023302 63 309 11.0 17.0 0.00 0.00 0.00 37 999.6
20260509023004 62 308 13.0 18.0 0.00 0.00 0.00 37 999.7
20260509021603 63 309 13.0 23.0 0.00 0.00 0.00 36 999.4
20260509021204 64 311 12.0 22.0 0.00 0.00 0.00 36 999.3
20260509020159 64 307 12.0 19.0 0.00 0.00 0.00 35 999.1
20260509020003 64 302 14.0 20.0 0.00 0.00 0.00 35 999.1
20260509015155 64 308 12.0 19.0 0.00 0.00 0.00 34 998.9
20260509014602 64 301 12.0 16.0 0.00 0.00 0.00 33 998.9
20260509013005 65 300 15.0 20.0 0.00 0.00 0.00 31 998.6
20260509011926 67 309 13.0 19.0 0.00 0.00 0.00 30 998.5
20260509011605 66 294 12.0 20.0 0.00 0.00 0.00 30 998.5
20260509010923 67 308 14.0 19.0 0.00 0.00 0.00 29 998.4
20260509010002 67 311 15.0 23.0 0.00 0.00 0.00 29 998.3
20260509005923 68 288 14.0 22.0 0.00 0.00 0.00 29 998.3
20260509004617 68 289 17.0 28.0 0.00 0.00 0.00 28 998.2
20260509003809 69 304 17.0 24.0 0.00 0.00 0.00 29 998.1
20260509003003 69 295 17.0 23.0 0.00 0.00 0.00 29 998.2
20260509002806 69 321 15.0 23.0 0.00 0.00 0.00 29 998.1
20260509001819 70 321 14.0 24.0 0.00 0.00 0.00 30 998.1
20260509001602 69 300 11.0 24.0 0.00 0.00 0.00 31 998.2
20260509000752 70 278 18.0 26.0 0.00 0.00 0.00 30 998.1
20260509000003 70 307 16.0 24.0 0.00 0.00 0.00 29 998.2
20260508235719 70 297 15.0 28.0 0.00 0.00 0.00 29 998.2
20260508234649 70 302 17.0 28.0 0.00 0.00 0.00 29 998.1
20260508234603 70 301 18.0 29.0 0.00 0.00 0.00 29 998.2
20260508233628 71 298 13.0 19.0 0.00 0.00 0.00 31 998.2
20260508233003 70 302 16.0 24.0 0.00 0.00 0.00 29 998.2
20260508232651 71 316 17.0 26.0 0.00 0.00 0.00 30 998.1
20260508231647 71 322 19.0 29.0 0.00 0.00 0.00 29 998.2
20260508231602 71 296 17.0 30.0 0.00 0.00 0.00 29 998.2
20260508230043 71 278 21.0 29.0 0.00 0.00 0.00 29 998.3
20260508224605 72 316 14.0 25.0 0.00 0.00 0.00 30 998.3
20260508224602 72 311 15.0 28.0 0.00 0.00 0.00 30 998.3
20260508223006 71 311 22.0 28.0 0.00 0.00 0.00 29 998.2
20260508221602 70 310 16.0 26.0 0.00 0.00 0.00 31 998.4
20260508221319 71 309 15.0 25.0 0.00 0.00 0.00 31 998.3
20260508220242 71 278 14.0 24.0 0.00 0.00 0.00 30 998.4
20260508220008 70 285 15.0 25.0 0.00 0.00 0.00 29 998.4
20260508215231 70 276 12.0 24.0 0.00 0.00 0.00 29 998.6
20260508214602 70 274 11.0 15.0 0.00 0.00 0.00 29 998.7
20260508214253 70 281 10.0 16.0 0.00 0.00 0.00 28 998.6
20260508213255 70 285 12.0 19.0 0.00 0.00 0.00 30 998.8
20260508213003 70 283 12.0 20.0 0.00 0.00 0.00 27 998.8
20260508212259 70 308 11.0 19.0 0.00 0.00 0.00 28 998.8
20260508211605 70 269 10.0 16.0 0.00 0.00 0.00 28 999.0
20260508211247 70 259 10.0 23.0 0.00 0.00 0.00 31 999.0
20260508210246 70 286 13.0 23.0 0.00 0.00 0.00 30 999.2
20260508210004 69 304 18.0 24.0 0.00 0.00 0.00 28 999.3
20260508205212 70 289 12.0 17.0 0.00 0.00 0.00 28 999.2
20260508204608 69 271 12.0 18.0 0.00 0.00 0.00 29 999.4
20260508204215 70 341 11.0 23.0 0.00 0.00 0.00 29 999.4
20260508203236 70 276 14.0 23.0 0.00 0.00 0.00 27 999.6
20260508203002 69 278 16.0 24.0 0.00 0.00 0.00 27 999.7
20260508202248 70 232 10.0 15.0 0.00 0.00 0.00 28 999.8
20260508201601 69 284 10.0 18.0 0.00 0.00 0.00 27 1000.0
20260508201252 69 285 11.0 20.0 0.00 0.00 0.00 27 1000.0
20260508200002 68 260 8.0 23.0 0.00 0.00 0.00 26 1000.2
20260508195139 69 290 17.0 24.0 0.00 0.00 0.00 27 1000.4
20260508194604 69 285 16.0 25.0 0.00 0.00 0.00 25 1000.4
20260508193004 69 281 14.0 26.0 0.00 0.00 0.00 27 1000.8
20260508193002 69 269 16.0 25.0 0.00 0.00 0.00 27 1000.8
20260508191601 68 317 13.0 23.0 0.00 0.00 0.00 28 1001.0
20260508190843 70 257 16.0 29.0 0.00 0.00 0.00 28 1000.9
20260508190004 68 269 13.0 23.0 0.00 0.00 0.00 25 1001.1
20260508184759 69 307 13.0 30.0 0.00 0.00 0.00 29 1001.1
20260508184603 68 280 13.0 23.0 0.00 0.00 0.00 29 1001.3
20260508183809 68 304 19.0 30.0 0.00 0.00 0.00 27 1001.3
20260508183007 68 259 21.0 31.0 0.00 0.00 0.00 28 1001.4
20260508181617 68 312 10.0 28.0 0.00 0.00 0.00 29 1001.5
20260508181611 67 304 11.0 24.0 0.00 0.00 0.00 29 1001.6
20260508180628 67 290 18.0 28.0 0.00 0.00 0.00 27 1001.9
20260508180003 67 293 22.0 29.0 0.00 0.00 0.00 26 1002.0
20260508175627 68 284 14.0 27.0 0.00 0.00 0.00 26 1001.9
20260508174620 67 288 17.0 23.0 0.00 0.00 0.00 25 1002.2
20260508173503 67 278 14.0 24.0 0.00 0.00 0.00 26 1002.5
20260508173002 66 280 12.0 22.0 0.00 0.00 0.00 27 1002.5
20260508172521 66 281 12.0 27.0 0.00 0.00 0.00 27 1002.6
20260508171603 66 279 13.0 28.0 0.00 0.00 0.00 27 1002.8
20260508171450 67 253 14.0 27.0 0.00 0.00 0.00 30 1002.8
20260508170417 67 282 12.0 21.0 0.00 0.00 0.00 30 1002.9
20260508170002 65 287 17.0 22.0 0.00 0.00 0.00 28 1003.1
20260508165349 65 290 12.0 19.0 0.00 0.00 0.00 30 1003.1
20260508164602 64 311 13.0 20.0 0.00 0.00 0.00 30 1003.4
20260508164358 65 294 12.0 21.0 0.00 0.00 0.00 31 1003.3
20260508163406 65 290 12.0 21.0 0.00 0.00 0.00 29 1003.5
20260508163003 64 292 12.0 18.0 0.00 0.00 0.00 32 1003.6
20260508162427 64 305 11.0 20.0 0.00 0.00 0.00 32 1003.5
20260508161602 63 308 13.0 21.0 0.00 0.00 0.00 32 1003.7
20260508161419 64 266 7.0 12.0 0.00 0.00 0.00 35 1003.6
20260508160432 62 272 10.0 15.0 0.00 0.00 0.00 35 1003.9
20260508160002 62 269 9.0 17.0 0.00 0.00 0.00 37 1004.1
20260508154603 62 278 12.0 21.0 0.00 0.00 0.00 34 1004.1
20260508154324 63 288 11.0 20.0 0.00 0.00 0.00 34 1004.0
20260508153338 61 235 12.0 18.0 0.00 0.00 0.00 37 1004.2
20260508153003 61 276 12.0 19.0 0.00 0.00 0.00 36 1004.3
20260508152313 61 266 11.0 18.0 0.00 0.00 0.00 38 1004.3
20260508151604 60 233 10.0 17.0 0.00 0.00 0.00 39 1004.4
20260508150148 59 232 10.0 16.0 0.00 0.00 0.00 38 1004.6
20260508150004 59 233 10.0 16.0 0.00 0.00 0.00 41 1004.6
20260508145209 58 243 11.0 16.0 0.00 0.00 0.00 39 1004.7
20260508144608 57 238 10.0 16.0 0.00 0.00 0.00 39 1004.8
20260508144221 58 255 11.0 15.0 0.00 0.00 0.00 39 1004.8
20260508143241 57 232 10.0 15.0 0.00 0.00 0.00 41 1004.9
20260508143003 56 246 11.0 15.0 0.00 0.00 0.00 42 1004.9
20260508141606 55 238 13.0 18.0 0.00 0.00 0.00 41 1004.9
20260508141104 56 240 11.0 17.0 0.00 0.00 0.00 42 1004.9
20260508140115 55 235 13.0 18.0 0.00 0.00 0.00 42 1005.0
20260508140005 55 230 13.0 19.0 0.00 0.00 0.00 42 1005.1
20260508135048 55 240 11.0 19.0 0.00 0.00 0.00 44 1005.1
20260508134617 54 219 11.0 20.0 0.00 0.00 0.00 44 1005.2
20260508134031 54 226 11.0 19.0 0.00 0.00 0.00 44 1005.2
20260508133049 54 236 12.0 17.0 0.00 0.00 0.00 44 1005.2
20260508133001 53 231 13.0 16.0 0.00 0.00 0.00 44 1005.3
20260508132102 53 221 11.0 17.0 0.00 0.00 0.00 45 1005.2
20260508131603 52 223 13.0 18.0 0.00 0.00 0.00 45 1005.4
20260508131042 52 233 9.0 13.0 0.00 0.00 0.00 45 1005.3
20260508130041 51 214 10.0 15.0 0.00 0.00 0.00 46 1005.4
20260508130005 50 225 10.0 16.0 0.00 0.00 0.00 47 1005.4
20260508125057 50 229 10.0 15.0 0.00 0.00 0.00 46 1005.5